Wetbulb
47.70 47.98 47.37 47.52 48.45 48.98 45.63 39.61 30.46 40.76 45.84 33.31 32.60 29.45 31.58 37.04 35.61 38.47 36.29 35.93 33.72 33.59 35.50 33.19 32.38 31.29 36.69 39.19 39.65 35.34 35.38 31.54 27.69 30.17 33.57 34.94 33.56 31.43 30.57 26.01 24.66 23.20 22.52 25.47
46.78 47.33 47.63 47.71 47.10 47.67 43.44 32.94 34.93 41.43 41.47 27.57 29.26 33.61 33.68 35.41 36.28 36.36 35.92 33.60 34.85 35.59 35.02 32.45 33.88 35.93 37.84 38.83 39.61 38.13 36.56 30.69 24.86 27.06 30.49 31.40 30.86 32.25 32.37 30.71 29.80 24.04 22.71 26.77
45.74 46.20 47.17 47.18 47.35 47.05 43.84 34.54 27.34 31.42 37.44 35.04 31.62 29.84 30.45 33.21 37.52 36.08 36.85 35.82 35.94 34.42 33.79 35.55 34.23 33.99 37.75 39.12 38.84 43.32 41.48 31.90 31.31 27.89 28.47 31.29 29.39 31.15 32.37 32.79 27.47 27.56 26.58 26.95
45.69 45.63 46.03 46.42 47.00 47.12 41.85 32.89 28.53 31.42 24.60 29.02 31.23 32.29 29.68 30.20 32.34 36.64 37.20 34.56 35.07 33.24 30.50 32.83 32.59 34.52 36.20 38.34 42.03 38.09 37.31 30.95 30.83 29.11 30.97 31.44 30.99 31.39 32.41 31.91 34.34 29.89 30.59 29.16
45.66 45.77 45.79 46.27 46.51 47.19 40.44 33.32 30.78 32.64 30.00 30.79 29.27 29.68 26.49 27.70 33.08 32.31 29.33 30.08 30.84 30.16 31.22 32.40 30.26 32.99 34.09 34.45 36.72 35.95 36.34 29.36 30.38 28.54 30.79 31.47 30.74 31.82 34.24 35.01 34.23 30.69 29.20 29.37
46.74 46.76 46.62 46.44 46.41 45.96 39.26 39.41 38.02 32.55 29.46 28.89 28.90 30.63 30.89 33.04 34.94 32.57 33.93 32.03 32.09 31.40 32.60 35.44 37.27 37.12 37.06 37.35 35.44 33.02 33.72 30.46 28.35 25.47 28.99 29.32 26.48 29.87 32.16 33.06 32.40 34.86 29.18 32.71
46.42 46.51 46.38 46.40 46.51 45.31 42.18 40.31 38.38 30.78 25.59 29.53 29.46 31.01 31.33 31.06 35.32 30.93 33.75 34.04 34.44 35.16 39.26 39.39 38.63 37.10 35.63 35.47 34.50 36.51 33.38 31.30 27.71 24.65 25.39 21.65 27.90 27.67 31.48 32.38 31.80 32.49 31.55 31.63
45.28 45.96 46.11 46.24 46.63 46.67 42.45 41.28 38.65 32.06 26.49 30.19 30.08 28.81 31.17 34.00 36.60 33.42 35.12 35.74 37.42 40.10 36.13 32.50 30.21 30.07 31.57 30.83 32.29 33.28 35.21 30.68 24.36 22.85 15.51 23.86 24.81 27.51 29.70 31.97 31.75 31.67 30.46 31.18
43.81 44.30 45.38 45.49 45.65 45.95 42.26 37.41 42.51 37.00 29.01 28.97 30.83 29.49 31.71 30.61 31.74 32.26 34.18 38.09 39.20 38.38 34.66 29.60 23.74 22.77 26.00 27.46 28.41 32.42 32.87 33.34 30.45 21.91 21.25 20.43 26.86 27.76 31.25 32.99 28.16 29.75 31.17 29.57
42.58 42.91 43.39 44.69 45.23 45.23 40.66 38.84 41.78 36.67 30.40 33.84 31.51 28.78 27.95 32.39 31.58 31.88 32.55 34.30 35.13 36.94 31.71 26.96 24.84 23.28 28.12 24.91 25.31 26.01 28.46 29.68 27.47 26.14 22.43 25.21 27.36 29.86 31.32 26.91 28.02 30.37 32.07 31.34
41.97 42.17 42.43 43.26 44.78 44.78 40.13 38.96 41.64 37.02 32.06 34.19 33.45 33.19 29.69 30.01 31.62 30.07 31.68 33.71 32.90 32.55 31.26 28.84 26.07 24.95 26.65 25.62 25.15 27.68 27.16 26.74 26.21 26.75 25.41 22.37 29.17 29.31 27.83 28.09 28.71 30.62 31.73 31.83
40.98 41.48 41.69 42.09 44.12 44.79 43.51 36.86 40.69 40.98 34.70 32.89 36.41 36.31 36.44 33.55 33.11 31.84 33.20 31.77 32.68 34.13 30.09 28.42 26.56 23.36 20.32 21.19 21.54 25.54 25.51 28.50 27.69 28.40 27.03 25.76 26.63 28.72 30.20 30.88 29.93 29.87 30.04 29.74
40.45 40.83 41.19 41.37 43.31 44.38 42.64 38.71 38.95 38.35 33.05 33.18 32.71 31.68 35.66 37.53 36.14 37.56 31.85 32.66 33.39 32.51 33.98 29.96 27.55 24.74 22.12 17.85 19.90 21.88 25.38 27.68 24.88 26.83 25.35 24.36 24.76 27.39 29.82 30.87 30.55 31.34 31.60 30.85
40.33 40.60 40.72 40.73 42.22 43.14 43.36 38.55 38.74 37.41 33.64 27.30 29.48 37.82 33.83 37.06 37.57 38.87 38.72 35.61 35.11 33.80 33.48 29.50 27.50 24.63 26.45 19.46 22.76 20.38 22.35 26.03 23.70 21.56 23.76 26.29 24.97 24.45 27.10 28.05 28.31 27.37 29.02 30.23
39.84 39.86 39.96 40.18 42.11 42.86 40.19 40.88 38.91 39.08 32.66 25.66 28.45 32.46 34.67 35.36 34.73 34.76 34.89 33.76 31.75 29.58 27.58 26.08 23.35 26.17 25.75 24.19 24.15 16.59 18.12 17.99 23.34 22.72 26.00 24.59 21.74 22.89 26.98 25.40 25.01 25.72 24.90 23.23
39.31 39.14 39.27 39.57 42.11 42.14 35.07 30.95 37.48 38.05 37.77 28.64 23.76 31.10 30.22 32.39 33.07 31.52 30.39 30.88 29.78 28.76 26.98 25.38 27.14 29.10 27.12 20.78 15.52 16.89 18.46 20.69 21.88 22.22 22.80 21.30 21.49 22.22 23.90 22.14 22.06 22.49 22.04 22.49
38.82 38.62 38.54 40.32 40.95 34.40 28.57 26.31 31.88 38.98 37.82 28.70 23.90 25.23 29.90 30.68 32.27 30.23 27.70 28.89 27.78 28.38 26.69 25.49 26.32 24.92 24.46 18.89 11.72 16.02 17.16 18.30 21.13 23.26 23.93 20.14 19.87 17.90 20.64 20.52 20.38 21.48 18.88 18.91
38.19 37.89 38.33 39.39 38.05 34.69 28.34 32.26 38.25 35.47 33.73 28.00 21.25 21.74 24.78 29.55 26.75 25.70 27.78 24.34 25.41 24.64 25.26 26.22 23.82 23.00 20.57 12.27 15.44 16.87 17.17 17.64 17.46 18.27 19.44 18.69 18.69 18.74 18.12 19.14 18.78 16.62 15.47 15.68
37.12 36.56 37.26 30.94 27.66 23.94 25.53 37.66 34.17 30.14 27.47 19.37 20.24 16.79 17.29 26.76 26.66 27.37 27.85 25.46 19.49 24.12 21.44 22.66 22.38 14.91 9.02 10.41 14.55 13.59 15.14 15.74 14.89 16.74 16.88 16.70 15.35 14.99 15.34 15.45 15.18 13.92 13.48 13.96
35.44 27.73 22.79 16.46 20.46 35.79 31.65 22.43 17.06 15.37 13.66 20.97 19.44 22.04 18.87 22.24 23.69 23.59 24.42 24.07 18.81 14.89 20.29 21.52 14.22 8.98 10.45 10.27 11.34 12.73 13.63 14.54 16.91 15.35 13.40 13.98 12.98 12.87 12.40 12.27 13.19 13.34 12.92 12.61
22.39 16.51 16.57 23.66 32.46 22.11 13.22 7.48 9.07 8.35 8.76 18.48 19.47 20.28 17.49 23.97 19.51 20.43 22.18 18.62 18.26 12.62 16.70 16.62 13.54 9.05 7.24 10.71 10.96 12.64 12.98 13.28 13.21 13.57 13.42 13.31 12.86 11.65 10.86 10.64 11.38 11.78 11.55 10.81
27.28 29.60 32.95 23.09 14.36 8.14 6.29 -5.99 8.06 11.56 10.06 14.18 11.33 13.99 19.64 19.54 20.64 19.00 18.84 16.95 16.66 11.00 15.47 13.19 7.92 6.51 10.05 10.85 10.46 11.01 11.82 11.85 11.17 12.30 11.55 11.34 11.20 10.30 9.30 9.16 9.33 9.56 9.95 10.14
25.49 14.46 7.83 9.71 4.89 2.95 0.73 1.64 5.36 7.29 11.43 10.47 11.19 8.88 15.19 15.90 15.34 8.99 13.39 11.04 10.41 15.67 8.41 6.28 3.49 9.82 10.58 10.12 10.74 10.23 11.31 11.65 11.51 10.90 11.25 10.87 9.81 9.49 6.85 6.91 8.12 6.77 6.13 7.65
8.27 3.52 3.09 -0.58 -2.35 2.16 8.03 9.04 10.52 14.91 13.86 11.92 10.49 10.02 11.60 12.97 8.38 1.33 3.33 9.75 9.63 2.71 0.51 1.84 4.17 8.19 9.22 11.17 11.34 9.77 7.83 8.82 8.02 8.05 8.44 7.84 7.26 6.60 7.80 7.07 4.87 2.50 4.35 7.72
1.20 3.77 -3.12 -4.89 4.62 5.50 0.75 3.88 8.03 13.85 12.62 9.54 8.79 13.36 13.59 10.13 2.60 0.54 1.87 0.02 -6.38 -3.01 0.88 5.42 7.00 9.03 9.59 9.42 8.69 7.02 5.75 4.38 3.72 1.92 2.97 1.47 0.99 1.03 1.78 3.28 1.08 0.90 3.50 5.97
-0.84 -1.01 -2.92 4.13 -1.53 -4.64 -4.67 -7.45 -4.60 4.14 6.65 7.57 10.80 11.47 13.11 11.63 7.22 1.44 -5.65 -5.51 -5.78 0.35 3.83 6.86 8.38 8.01 8.61 7.64 7.25 5.29 2.24 0.60 -2.90 -6.02 -0.02 1.58 -2.85 -1.55 -2.04 -1.06 -0.57 0.54 1.84 4.13
-5.59 -4.81 3.97 -0.17 -2.03 -4.66 -6.57 -4.13 -4.41 1.78 0.32 2.94 7.51 8.93 8.89 12.80 8.35 3.90 6.63 3.10 5.54 6.83 8.32 9.86 9.58 7.42 5.63 5.01 7.91 7.67 6.18 3.40 -2.58 -8.46 -4.23 -3.48 -9.56 -12.95 -8.40 -1.85 0.26 1.27 4.88 2.57
MSLP
1015.56 1014.79 1014.17 1013.56 1012.99 1012.40 1011.89 1011.97 1011.31 1010.52 1009.87 1010.15 1009.59 1008.92 1007.73 1006.57 1005.42 1005.52 1005.48 1004.10 1003.88 1003.99 1004.37 1004.90 1005.72 1006.18 1005.59 1005.99 1006.57 1008.15 1008.84 1010.12 1012.46 1012.58 1012.47 1012.50 1012.45 1012.75 1013.18 1014.18 1016.13 1016.87 1017.10 1016.20
1015.69 1014.96 1014.32 1013.64 1013.07 1012.51 1012.21 1012.01 1011.15 1010.32 1010.32 1009.98 1009.11 1008.11 1007.04 1006.15 1005.11 1004.60 1004.61 1003.72 1003.12 1003.19 1003.73 1004.82 1005.17 1005.36 1005.76 1005.46 1005.78 1006.00 1007.42 1009.11 1011.93 1012.90 1013.12 1012.91 1012.72 1012.66 1012.57 1013.26 1014.09 1015.23 1016.19 1015.87
1015.65 1014.90 1014.26 1013.66 1012.98 1012.42 1012.24 1012.06 1011.60 1010.25 1009.89 1009.58 1008.93 1008.10 1006.78 1005.79 1004.79 1004.08 1003.58 1003.11 1003.10 1003.26 1003.81 1004.08 1004.96 1005.87 1006.23 1005.96 1005.76 1005.88 1006.31 1007.85 1008.87 1009.73 1010.10 1011.07 1012.44 1012.12 1012.23 1012.48 1013.76 1013.55 1014.38 1015.33
1015.72 1014.86 1014.28 1013.66 1012.96 1012.25 1012.15 1012.33 1011.81 1010.97 1009.72 1008.77 1008.59 1007.93 1006.95 1005.53 1004.46 1003.74 1003.02 1003.26 1003.17 1003.23 1004.00 1004.59 1005.05 1006.01 1006.55 1006.58 1006.37 1006.61 1006.86 1008.05 1009.17 1009.80 1009.83 1010.36 1010.68 1011.05 1011.62 1012.00 1011.37 1012.74 1012.52 1014.21
1015.47 1014.83 1014.19 1013.45 1012.83 1012.09 1012.21 1012.26 1012.24 1011.39 1010.26 1009.30 1008.35 1007.48 1006.29 1005.09 1004.24 1003.54 1003.31 1003.02 1003.42 1003.43 1003.47 1003.52 1004.38 1004.87 1005.61 1005.98 1007.20 1007.19 1007.56 1008.96 1009.48 1010.61 1010.62 1010.57 1010.85 1010.92 1010.76 1010.53 1011.15 1011.89 1012.62 1013.69
1015.39 1014.52 1013.87 1013.28 1012.72 1012.25 1012.09 1012.00 1012.02 1011.70 1009.91 1009.22 1008.40 1007.08 1006.03 1004.39 1003.98 1003.28 1002.59 1002.66 1003.10 1003.68 1003.40 1003.45 1003.51 1004.12 1004.43 1004.76 1005.85 1007.17 1007.99 1009.28 1010.28 1011.42 1011.58 1011.53 1011.53 1010.31 1010.58 1010.65 1010.74 1011.31 1012.51 1013.17
1015.82 1014.86 1013.99 1013.28 1012.65 1012.34 1012.62 1012.03 1011.73 1011.30 1009.78 1009.02 1008.05 1006.95 1005.39 1003.81 1002.79 1003.10 1003.24 1003.11 1002.76 1003.88 1003.57 1003.44 1004.30 1005.00 1005.80 1006.29 1006.82 1006.81 1007.98 1009.41 1010.81 1012.22 1012.53 1012.29 1010.49 1010.54 1010.19 1010.25 1010.78 1011.50 1012.29 1013.27
1016.28 1015.42 1014.49 1013.61 1012.79 1012.16 1012.00 1011.84 1011.57 1010.81 1009.79 1008.51 1007.58 1006.72 1005.41 1003.77 1003.36 1003.80 1003.63 1003.48 1003.10 1003.31 1003.70 1004.45 1005.67 1006.55 1006.93 1008.00 1008.47 1007.94 1007.66 1008.67 1011.25 1012.55 1012.88 1011.84 1011.35 1011.15 1010.75 1010.46 1011.10 1011.70 1012.62 1013.93
1016.76 1015.80 1014.85 1013.97 1013.09 1012.36 1011.94 1011.59 1011.34 1010.88 1010.09 1008.51 1007.98 1006.22 1005.23 1004.48 1003.91 1004.10 1004.11 1004.17 1003.79 1003.85 1004.20 1004.85 1006.08 1007.31 1007.41 1008.63 1009.17 1008.87 1008.65 1008.18 1009.81 1011.94 1012.21 1011.83 1010.83 1010.47 1010.40 1010.38 1011.28 1011.51 1012.36 1013.93
1016.87 1016.13 1015.32 1014.26 1013.39 1012.50 1012.13 1011.63 1011.40 1010.98 1009.98 1008.94 1008.67 1007.87 1006.84 1005.79 1004.97 1004.54 1004.64 1004.83 1004.68 1003.94 1004.80 1005.92 1006.56 1007.39 1007.56 1008.29 1008.84 1009.67 1009.52 1010.10 1010.47 1011.48 1012.04 1011.65 1010.94 1011.06 1011.26 1011.60 1011.74 1011.40 1012.40 1013.54
1016.94 1016.07 1015.33 1014.42 1013.38 1012.54 1012.11 1011.70 1011.29 1011.09 1010.17 1009.25 1009.03 1008.77 1008.41 1007.23 1006.48 1005.73 1005.34 1005.03 1005.30 1005.56 1005.89 1006.44 1007.12 1007.92 1008.32 1008.40 1008.73 1008.67 1009.17 1010.11 1011.23 1011.92 1012.66 1012.21 1011.35 1011.91 1012.01 1012.15 1012.36 1012.50 1013.25 1014.54
1017.07 1016.05 1015.31 1014.49 1013.26 1012.35 1011.94 1011.63 1011.23 1010.63 1010.22 1009.78 1009.28 1008.93 1008.71 1008.85 1008.14 1007.12 1005.88 1005.61 1005.25 1005.42 1006.06 1007.09 1007.74 1008.87 1009.22 1009.39 1010.04 1009.68 1010.11 1009.89 1010.30 1011.63 1011.98 1012.20 1012.59 1012.59 1012.19 1012.39 1013.03 1013.95 1014.63 1015.67
1016.87 1015.91 1014.92 1014.30 1013.29 1012.33 1012.09 1011.86 1011.41 1010.45 1010.17 1009.74 1009.45 1009.34 1009.00 1008.46 1007.77 1007.04 1006.49 1006.21 1006.23 1006.24 1006.32 1007.19 1008.23 1009.13 1009.71 1010.49 1010.70 1011.07 1011.25 1010.95 1011.40 1012.34 1013.37 1013.66 1013.94 1013.91 1013.53 1013.45 1013.54 1014.50 1015.72 1016.78
1016.50 1015.62 1014.65 1013.84 1013.05 1012.31 1011.82 1011.99 1011.83 1011.35 1010.96 1010.40 1009.96 1009.46 1009.26 1008.76 1007.34 1006.63 1006.38 1006.59 1006.73 1006.88 1007.09 1007.70 1008.64 1009.57 1010.26 1011.12 1011.38 1012.33 1013.36 1012.67 1012.74 1014.03 1014.74 1014.94 1015.46 1015.61 1015.33 1014.95 1014.87 1016.26 1017.22 1018.06
1016.15 1015.19 1014.29 1013.49 1012.77 1012.10 1011.88 1011.88 1011.96 1011.93 1011.96 1011.26 1010.36 1010.11 1009.87 1009.31 1008.35 1007.48 1007.11 1007.04 1007.31 1007.61 1008.09 1008.65 1009.59 1010.17 1010.91 1011.86 1012.74 1014.65 1015.49 1015.18 1014.54 1014.09 1014.12 1014.82 1016.55 1016.62 1016.45 1016.55 1017.39 1018.08 1018.45 1019.84
1015.80 1014.64 1013.73 1013.07 1012.45 1011.93 1011.86 1012.08 1011.92 1011.68 1011.62 1011.46 1011.19 1011.00 1010.59 1009.89 1009.25 1008.76 1008.44 1008.24 1008.18 1008.30 1008.87 1009.92 1010.50 1011.02 1011.41 1012.87 1014.92 1016.74 1016.81 1016.39 1016.07 1015.71 1015.75 1016.57 1017.65 1017.82 1018.18 1018.36 1019.43 1020.01 1020.41 1021.48
1015.26 1014.11 1013.25 1012.70 1012.26 1012.35 1012.40 1012.65 1012.71 1011.82 1011.42 1011.66 1011.70 1011.40 1011.23 1010.82 1010.19 1009.73 1009.52 1009.16 1009.34 1009.22 1010.14 1010.98 1011.35 1012.07 1012.50 1014.61 1016.81 1018.20 1018.17 1017.71 1017.31 1017.19 1016.83 1018.10 1019.10 1020.16 1020.32 1020.17 1021.05 1021.60 1022.61 1023.57
1014.74 1013.77 1012.91 1012.53 1012.46 1012.58 1012.71 1012.84 1012.52 1012.04 1011.93 1012.27 1012.86 1012.71 1012.22 1012.13 1011.56 1011.03 1010.58 1010.45 1010.13 1010.75 1011.40 1011.79 1012.54 1013.56 1014.91 1017.27 1019.16 1019.62 1019.46 1019.32 1018.81 1018.56 1018.31 1019.26 1020.50 1021.39 1021.93 1022.28 1022.72 1023.54 1024.61 1025.48
1014.46 1013.65 1012.84 1012.90 1013.32 1013.94 1013.69 1012.98 1012.68 1012.81 1013.05 1013.67 1014.65 1014.90 1014.06 1013.40 1012.83 1012.27 1011.64 1011.44 1011.81 1012.20 1012.69 1013.44 1014.04 1016.22 1018.49 1020.52 1020.71 1020.92 1020.67 1020.23 1020.69 1020.39 1020.57 1021.30 1021.91 1022.93 1023.58 1023.92 1024.66 1025.23 1026.30 1026.83
1014.88 1014.19 1014.14 1014.75 1014.91 1014.25 1013.67 1013.52 1013.91 1014.40 1015.45 1015.63 1016.66 1016.40 1015.63 1015.28 1014.12 1013.46 1013.19 1013.09 1013.53 1013.70 1014.62 1014.60 1016.29 1019.72 1021.66 1022.29 1022.53 1022.39 1022.12 1021.81 1021.80 1021.65 1022.71 1023.22 1023.84 1024.47 1025.10 1025.65 1026.21 1026.66 1027.28 1027.87
1016.99 1017.27 1016.99 1016.03 1014.93 1014.76 1015.51 1016.85 1017.80 1018.77 1019.14 1018.90 1018.63 1017.85 1017.23 1016.22 1015.95 1015.27 1015.06 1014.91 1014.99 1015.31 1015.85 1016.18 1018.59 1021.29 1022.92 1023.53 1023.62 1023.68 1023.57 1023.37 1023.39 1023.53 1023.91 1024.42 1024.99 1025.85 1026.48 1027.21 1027.69 1028.07 1028.43 1028.87
1018.24 1017.87 1017.49 1017.45 1017.95 1018.84 1019.75 1022.01 1021.80 1021.87 1022.35 1021.54 1020.77 1019.91 1018.75 1017.58 1017.13 1016.81 1016.50 1016.39 1016.33 1017.02 1017.34 1017.89 1020.73 1023.20 1024.08 1024.59 1024.91 1025.09 1025.03 1024.97 1025.10 1025.36 1025.76 1026.27 1026.78 1027.27 1027.76 1028.37 1028.86 1029.26 1029.51 1029.52
1018.34 1019.02 1019.91 1021.25 1022.95 1023.96 1025.63 1026.09 1025.14 1024.57 1023.91 1023.18 1022.73 1021.37 1019.80 1018.57 1018.29 1018.41 1018.29 1018.19 1018.73 1018.48 1019.07 1021.21 1023.15 1024.05 1024.99 1025.62 1025.99 1026.29 1026.48 1026.54 1026.75 1027.11 1027.39 1027.66 1028.03 1028.37 1028.78 1029.47 1029.92 1030.01 1029.85 1029.71
1022.01 1023.44 1025.08 1026.34 1027.56 1028.14 1028.08 1027.90 1027.25 1025.99 1025.17 1024.48 1023.67 1022.30 1021.02 1020.22 1020.07 1020.48 1020.49 1020.63 1020.37 1021.02 1021.95 1023.37 1024.42 1025.11 1025.86 1026.37 1026.83 1027.13 1027.68 1027.87 1028.08 1028.45 1028.79 1029.04 1029.35 1029.71 1029.93 1030.19 1030.41 1030.37 1030.21 1029.99
1025.35 1026.52 1029.11 1029.41 1029.55 1029.23 1029.19 1028.85 1028.21 1027.16 1026.43 1025.57 1024.16 1022.59 1021.72 1021.18 1021.43 1021.87 1021.95 1022.30 1022.94 1023.48 1024.10 1024.65 1025.37 1026.02 1026.51 1027.02 1027.51 1027.98 1028.51 1029.11 1029.55 1029.78 1029.95 1030.18 1030.46 1030.64 1030.69 1030.58 1030.44 1030.43 1030.56 1030.56
1027.97 1029.39 1030.56 1030.43 1030.63 1030.63 1030.67 1030.15 1029.56 1028.32 1027.39 1025.89 1024.82 1023.17 1022.12 1022.05 1022.42 1022.84 1023.82 1024.10 1024.56 1024.95 1025.25 1025.73 1026.23 1026.84 1027.35 1027.80 1028.22 1028.79 1029.25 1029.67 1030.14 1030.53 1031.00 1031.38 1031.72 1031.90 1031.87 1031.48 1031.24 1031.15 1031.00 1030.76
1030.56 1031.47 1031.33 1031.47 1031.71 1032.00 1031.78 1031.55 1030.64 1029.48 1028.49 1027.43 1025.88 1024.47 1023.52 1022.91 1023.19 1024.18 1024.66 1025.34 1025.70 1025.86 1026.21 1026.65 1027.18 1027.73 1028.25 1028.68 1029.04 1029.58 1030.11 1030.66 1031.19 1031.63 1031.99 1032.18 1032.28 1032.20 1032.25 1031.94 1031.49 1031.08 1030.71 1030.42
Wind_Speed
25 24 22 23 22 23 5 3 4 2 6 4 3 7 6 5 9 12 10 3 5 9 18 10 11 14 16 13 17 13 6 7 5 6 1 1 1 6 6 7 5 1 3 8
26 24 25 23 22 22 6 2 4 0 3 4 4 4 7 6 5 9 8 7 4 4 10 7 4 13 1 9 18 22 12 4 5 4 4 3 4 5 5 5 4 8 8 6
25 25 25 24 23 21 6 2 4 4 3 2 4 5 13 9 9 9 8 6 3 5 5 3 12 5 2 2 8 6 10 4 11 14 6 9 7 6 5 6 4 5 8 4
23 23 25 25 24 22 3 1 4 2 6 3 8 4 6 10 9 11 10 4 13 7 6 4 5 4 4 4 4 4 7 8 5 2 6 5 7 12 15 13 17 10 9 11
23 23 22 23 22 23 1 2 3 2 6 9 10 10 6 14 14 14 8 8 5 5 9 10 10 11 6 8 3 5 2 4 4 2 4 5 5 7 19 24 13 2 6 4
26 22 21 20 20 16 2 1 2 3 6 4 7 2 4 8 10 5 4 9 7 4 4 2 6 4 7 10 12 5 7 7 4 4 1 5 3 11 13 7 5 14 10 8
30 28 25 22 20 15 1 2 3 3 7 5 7 10 16 17 14 6 1 1 7 2 12 13 13 15 16 13 9 3 11 7 3 4 0 3 5 1 2 7 3 5 5 6
32 31 27 26 24 19 2 2 3 3 6 7 10 16 7 10 3 2 3 2 1 14 3 6 6 4 5 6 7 6 1 7 5 6 4 4 2 5 8 10 8 7 9 9
31 32 31 28 25 23 3 3 2 3 5 2 10 9 7 3 3 3 3 6 7 2 3 4 5 6 5 6 3 6 3 6 6 3 6 9 4 1 2 3 4 10 12 17
29 29 29 30 26 22 7 3 4 4 4 2 5 5 7 7 4 2 4 4 0 5 2 3 3 2 0 7 11 7 4 3 6 4 2 7 4 4 2 7 7 11 14 17
29 28 28 29 28 24 7 4 2 4 3 3 3 3 4 6 5 2 2 3 1 2 3 3 2 3 4 4 1 6 8 9 4 4 2 10 5 4 8 2 5 9 12 10
28 28 28 28 28 22 11 3 6 7 3 3 2 3 2 5 6 4 2 3 2 2 4 2 3 3 2 1 3 2 2 2 6 3 4 2 4 2 3 4 10 7 12 15
29 28 28 27 27 24 8 3 7 3 2 2 3 4 5 8 9 7 2 2 2 2 1 3 2 3 4 4 3 5 1 2 4 4 3 4 6 6 6 7 14 15 16 17
31 29 28 26 24 21 13 2 5 2 3 3 2 3 5 13 11 5 4 4 3 3 2 3 3 4 1 2 4 4 2 3 5 5 3 8 8 8 6 13 17 16 12 13
31 30 28 25 22 20 6 1 2 6 2 3 3 5 6 13 12 10 9 6 4 2 3 3 3 2 2 1 3 3 4 3 1 3 9 3 5 5 8 15 13 13 19 15
33 30 27 22 19 16 1 1 1 7 3 2 3 2 5 9 9 8 8 4 3 3 3 3 3 2 2 3 3 4 5 5 4 1 11 16 12 13 12 17 14 14 17 14
35 30 24 20 12 3 3 4 4 16 2 1 3 3 4 7 4 3 4 4 2 3 3 3 2 4 4 3 4 5 6 7 8 11 15 14 10 9 12 17 17 19 16 13
36 27 20 9 7 4 2 2 18 7 1 3 2 4 3 9 4 4 4 4 3 6 2 2 4 2 3 6 4 3 4 7 13 11 16 16 15 14 14 13 13 16 12 9
31 25 8 4 6 5 4 23 8 3 4 4 3 5 4 7 4 3 3 3 4 2 3 3 2 5 7 5 4 5 7 6 10 14 17 15 16 13 12 12 12 14 9 8
23 8 6 5 2 20 11 7 6 8 6 5 3 4 3 4 4 4 4 3 3 3 3 2 5 4 3 6 5 5 7 7 5 16 13 12 12 11 11 11 8 8 7 6
6 6 3 5 13 4 6 6 7 5 6 6 5 3 4 3 3 3 4 2 2 3 3 2 3 3 2 5 7 7 9 10 12 11 11 11 10 10 10 8 8 7 7 4
6 8 4 5 8 6 9 4 6 6 5 7 5 6 4 4 3 2 4 2 2 2 3 3 3 2 4 5 7 8 9 11 13 11 12 10 11 8 8 7 6 5 3 3
4 6 7 6 6 14 9 10 6 6 6 5 7 8 3 5 4 2 3 5 2 3 5 3 2 5 5 5 6 8 7 8 10 10 10 9 9 8 6 6 4 3 4 3
6 6 10 6 6 3 2 2 4 4 5 10 9 5 2 2 5 1 5 2 2 4 4 1 2 4 5 5 4 6 5 7 8 8 7 8 7 5 5 4 2 2 3 4
5 6 4 2 4 3 2 2 4 3 5 7 6 5 1 3 3 3 2 7 3 1 1 1 3 6 6 6 6 5 5 5 5 3 4 5 5 4 3 4 4 3 3 4
6 7 4 3 3 4 4 2 4 3 8 5 4 4 2 2 1 5 2 4 1 2 1 2 5 4 6 6 5 5 4 4 4 3 3 3 3 2 1 4 2 2 3 4
5 2 1 2 1 4 3 1 3 4 4 3 4 4 3 3 2 3 3 3 2 2 3 4 5 5 5 4 5 5 4 4 3 1 2 2 1 1 3 4 3 4 5 4
Wind_Direction
3 1 359 356 354 349 11 278 268 254 138 217 228 210 203 235 209 214 250 199 139 170 169 160 179 185 205 177 158 182 181 117 147 202 292 325 172 177 145 130 207 133 139 262
355 0 357 355 351 349 330 258 266 58 148 241 239 247 266 259 231 190 205 243 211 179 164 161 162 192 192 152 175 178 172 182 100 12 353 359 210 193 156 120 97 193 149 246
351 349 354 353 350 344 340 277 302 292 195 197 242 267 262 239 235 240 200 201 154 123 147 24 174 139 161 159 185 120 145 133 196 207 193 137 187 189 171 129 154 178 222 177
345 347 346 348 346 341 351 131 260 264 300 297 261 256 298 264 219 211 179 215 201 169 134 112 146 111 117 51 153 84 148 182 138 125 140 135 171 175 173 194 215 188 216 193
348 345 340 342 344 344 174 323 298 275 267 287 271 257 229 220 218 187 227 170 166 138 166 186 182 141 164 173 188 139 62 170 115 103 154 142 171 188 193 206 208 234 138 241
355 344 345 349 347 360 320 209 261 250 262 271 275 263 282 282 190 273 200 142 119 136 218 143 126 99 101 151 148 133 123 126 113 222 73 108 325 210 188 188 183 199 195 196
2 4 358 354 351 355 274 275 263 268 274 266 281 285 295 277 208 191 123 220 120 185 137 107 67 70 71 58 35 100 143 118 86 136 101 169 246 341 213 158 179 142 98 155
360 0 2 4 3 349 281 268 289 278 278 281 291 304 282 271 130 98 131 353 328 150 139 84 91 10 55 22 16 14 134 124 102 144 196 289 324 204 165 168 226 183 135 120
355 353 354 359 1 1 339 266 266 278 292 320 310 302 326 346 115 87 65 24 69 207 85 88 133 177 153 159 47 4 39 77 111 145 144 208 237 207 242 189 295 170 145 150
353 352 348 347 349 353 350 295 37 291 268 311 338 337 323 332 330 82 108 152 339 30 60 81 125 188 155 150 160 165 98 48 156 156 181 281 218 168 241 142 234 159 153 155
348 349 347 342 340 350 2 274 1 304 277 291 322 332 332 332 346 334 148 120 69 67 116 123 166 122 204 101 159 165 153 143 180 104 151 259 157 74 167 180 26 128 131 130
345 345 343 341 334 347 359 306 327 308 238 296 290 310 328 317 300 298 357 345 102 115 95 106 112 133 78 78 210 12 188 192 165 159 180 43 20 21 125 130 125 109 108 120
343 342 341 338 332 337 3 306 345 319 313 266 358 332 308 299 318 262 299 62 40 65 51 126 117 136 110 151 229 91 36 313 98 135 36 44 11 22 73 113 114 115 122 126
340 339 338 335 328 332 345 323 10 331 300 303 315 305 0 315 335 31 39 99 70 85 46 87 108 115 192 158 113 99 5 324 116 75 55 93 38 27 92 96 96 96 90 118
337 336 335 333 328 329 336 194 79 23 330 306 310 310 346 348 355 26 29 44 57 49 79 62 76 78 114 56 93 61 351 357 205 175 147 65 105 49 85 88 91 103 109 91
336 334 332 331 330 335 4 342 334 3 347 308 327 282 331 346 346 11 17 11 35 58 72 70 75 48 55 82 77 21 2 329 262 69 86 93 94 72 76 92 87 83 85 87
335 334 333 330 337 21 81 165 298 334 298 0 337 349 1 330 333 351 351 356 45 57 71 48 61 37 32 53 69 14 12 15 65 97 104 79 37 88 78 86 87 84 78 73
334 332 332 345 11 28 12 328 335 337 75 56 27 331 353 3 350 338 355 355 18 22 67 43 34 50 62 76 35 15 24 52 50 62 71 93 105 88 80 83 90 84 81 81
334 330 341 33 32 14 294 313 345 337 75 87 47 358 333 345 353 336 344 6 45 311 58 49 36 11 46 12 15 18 10 77 108 87 86 88 86 87 82 86 83 92 89 84
337 8 31 0 290 310 319 9 23 16 344 25 47 319 325 335 321 4 349 13 26 43 33 3 57 76 68 6 9 23 23 37 68 98 93 97 90 90 82 78 76 83 90 86
13 16 357 261 325 28 27 34 48 333 22 7 335 1 318 358 349 346 19 360 354 57 334 45 86 82 33 12 40 36 47 58 62 76 79 76 94 105 100 85 79 78 78 75
280 282 313 353 23 24 56 4 345 29 18 334 332 324 312 302 333 337 356 13 7 63 334 65 74 67 106 73 61 54 56 65 68 68 81 82 86 88 94 85 81 75 83 72
18 31 40 31 320 37 45 353 336 334 344 355 332 319 315 328 31 30 6 45 33 304 31 61 72 118 103 100 92 72 59 73 81 82 82 83 80 71 71 86 65 65 48 33
59 45 19 66 2 36 17 304 294 307 314 323 315 271 297 326 15 345 66 310 25 48 44 51 154 126 117 108 101 101 78 73 74 71 72 71 73 72 71 72 53 49 24 1
55 51 43 37 234 268 265 272 310 338 308 314 297 274 223 322 32 34 51 24 11 175 173 61 131 124 117 110 106 102 95 86 79 72 76 69 59 62 40 12 356 359 335 332
60 42 41 286 47 307 345 335 287 317 317 285 230 272 313 2 4 42 31 94 219 291 15 76 107 93 95 100 93 90 92 83 77 53 50 79 68 67 343 319 1 335 289 294
57 317 319 145 196 215 252 237 269 317 344 355 309 322 1 290 38 47 11 38 9 79 88 72 83 101 103 98 98 101 111 106 113 112 66 106 82 59 36 16 309 305 296 265